Location: Newark
(45.8667°N, 9.7333°E)
Time: 06:26:48
(UTC+00:00)

Vanguard 2 Rocket - All Passes

Search period start: 26 January 2020 00:00
Search period end: 05 February 2020 00:00
Orbit: 554 x 3326 km, 32.9° (Epoch: 25 January)

Date Brightness Start Highest point End Pass type
(mag) Time Alt. Az. Time Alt. Az. Time Alt. Az.
26 Jan - 04:28:00 10° SSW 04:30:54 17° SSE 04:34:28 10° ESE visible
26 Jan - 06:38:24 10° SW 06:43:02 26° S 06:49:54 10° SE daylight
26 Jan - 08:50:41 10° WSW 08:56:13 21° SSW 09:04:03 10° SSE daylight
27 Jan - 03:30:59 10° SSE 03:31:56 11° SSE 03:32:57 10° SE visible
27 Jan - 05:39:55 10° SW 05:43:46 23° S 05:49:05 10° SE visible
27 Jan - 07:51:34 10° WSW 07:56:29 22° S 08:03:31 10° SE daylight
27 Jan - 10:07:14 10° SW 10:10:07 11° SSW 10:13:24 10° S daylight
28 Jan - 04:41:34 10° SSW 04:44:39 18° SSE 04:48:30 10° SE visible
28 Jan - 06:52:43 10° SW 06:56:58 22° S 07:02:57 10° SE daylight
28 Jan - 09:06:26 10° SW 09:10:11 14° SSW 09:14:49 10° S daylight
29 Jan - 03:43:31 10° SSW 03:45:38 14° SSE 03:48:00 10° SE visible
29 Jan - 05:54:03 10° SW 05:57:39 20° S 06:02:29 10° SE visible
29 Jan - 08:06:44 10° SW 08:10:28 15° SSW 08:15:15 10° SSE daylight
30 Jan - 04:55:30 10° SW 04:58:31 18° S 05:02:14 10° SE visible
30 Jan - 07:07:31 10° SW 07:10:56 16° S 07:15:21 10° SSE daylight
31 Jan - 03:57:02 10° SSW 03:59:27 15° S 04:02:09 10° SE visible
31 Jan - 06:08:35 10° SW 06:11:37 16° S 06:15:25 10° SSE visible
01 Feb - 02:58:41 10° SSW 03:00:25 12° S 03:02:12 10° SE visible
01 Feb - 05:09:46 10° SW 05:12:25 16° S 05:15:33 10° SE visible
02 Feb - 02:00:56 10° S 02:01:21 10° SSE 02:01:46 10° SSE night (unlit)
02 Feb - 04:10:59 10° SW 04:13:19 15° S 04:15:53 10° SE visible
02 Feb - 06:24:12 10° SSW 06:25:34 11° SSW 06:27:04 10° S daylight
03 Feb - 03:12:09 10° SSW 03:14:16 14° S 03:16:25 10° SE visible
03 Feb - 05:24:43 10° SSW 05:26:20 12° S 05:28:06 10° SSE visible
04 Feb - 02:13:10 10° SSW 02:15:13 13° S 02:17:09 10° SE night (unlit)
04 Feb - 04:25:26 10° SSW 04:27:12 12° S 04:29:05 10° SSE visible
